This is the latest recevied weather packets stored in our database for station/object DG6YGE-6. If no packets are shown the sender has not sent any weather packets the latest 10 day(s).
| Time | Temp. | Humidity | Pressure | Rain* | Wind** | Luminosity | Snow |
|---|---|---|---|---|---|---|---|
| 1777488550 | 13.89° C | 44% | 1027 hPa | 0 mm | - | 7 W/m² | - |
| 1777487950 | 13.89° C | 45% | 1026.9 hPa | 0 mm | - | 12 W/m² | - |
| 1777487350 | 13.89° C | 43% | 1026.8 hPa | 0 mm | - | 17 W/m² | - |
| 1777486750 | 14.44° C | 44% | 1026.7 hPa | 0 mm | - | 28 W/m² | - |
| 1777486150 | 14.44° C | 42% | 1026.7 hPa | 0 mm | - | 43 W/m² | - |
| 1777485550 | 14.44° C | 42% | 1026.5 hPa | 0 mm | - | 52 W/m² | - |
| 1777484950 | 15° C | 42% | 1026.5 hPa | 0 mm | - | 81 W/m² | - |
| 1777484350 | 15° C | 43% | 1026.4 hPa | 0 mm | - | 105 W/m² | - |
| 1777483750 | 15° C | 42% | 1026.3 hPa | 0 mm | - | 129 W/m² | - |
| 1777483150 | 15° C | 39% | 1026.3 hPa | 0 mm | - | 155 W/m² | - |
| 1777482550 | 15° C | 40% | 1026.4 hPa | 0 mm | - | 134 W/m² | - |
| 1777481950 | 15° C | 42% | 1026.4 hPa | 0 mm | - | 172 W/m² | - |
| 1777481350 | 15° C | 39% | 1026.3 hPa | 0 mm | - | 203 W/m² | - |
| 1777480750 | 15.56° C | 38% | 1026.3 hPa | 0 mm | - | 216 W/m² | - |
| 1777480150 | 15.56° C | 39% | 1026.3 hPa | 0 mm | - | 204 W/m² | - |
| 1777479550 | 15.56° C | 38% | 1026.3 hPa | 0 mm | - | 210 W/m² | - |
| 1777478950 | 15.56° C | 39% | 1026.3 hPa | 0 mm | - | 286 W/m² | - |
| 1777478350 | 15.56° C | 39% | 1026.3 hPa | 0 mm | - | 286 W/m² | - |
| 1777477750 | 15.56° C | 38% | 1026.3 hPa | 0 mm | - | 312 W/m² | - |
| 1777477150 | 15.56° C | 38% | 1026.4 hPa | 0 mm | - | 377 W/m² | - |
| 1777476550 | 15.56° C | 39% | 1026.4 hPa | 0 mm | - | 434 W/m² | - |
| 1777475950 | 15.56° C | 40% | 1026.3 hPa | 0 mm | - | 455 W/m² | - |
| 1777475350 | 15.56° C | 39% | 1026.4 hPa | 0 mm | - | 478 W/m² | - |
| 1777474750 | 15.56° C | 39% | 1026.6 hPa | 0 mm | - | 500 W/m² | - |
| 1777474150 | 15.56° C | 39% | 1026.5 hPa | 0 mm | - | 517 W/m² | - |
* Rain latest hour (hover to see other rain measurements)
** Current wind speed in m/s (hover to see current wind gust speed)